User: anonymous   Login
Location: Unspecified
(0.0000°N, 0.0000°E)
Time: 12:52:00
(UTC+00:00)
Language:

UFO F6 - Orbit

View from above orbital plane
View from above orbital plane
View from above satellite
View from above satellite

Ground track
Ground track

The orbit data is extracted from the following two-line orbital elements,

1 23696U 95057A   17132.73167947 0.00000000  00000-0  00000-0 0    03
2 23696   9.0099  29.6113 0003674 236.8877 123.0859  1.00270000    06
Epoch (UTC): 12 May 2017 17:33:37
Eccentricity: 0.0003674
inclination: 9.0099°
perigee height: 35771 km
apogee height: 35802 km
right ascension of ascending node: 29.6113°
argument of perigee: 236.8877°
revolutions per day: 1.00270000
mean anomaly at epoch: 123.0859°
orbit number at epoch: 0

The dashed part of the orbit path shows where the satellite is in the earth's shadow,  

DLR